Miscellaneous Local Product
Issued by NWS North Platte, NE

Home | Current Version | Previous Version | Text Only | Print | Product List | Glossary On
Versions: 1 2 3 4 5 6 7 8 9 10 11 12 13 14 15 16 17 18 19 20 21 22 23 24 25 26 27 28 29 30 31 32 33 34 35 36 37 38 39 40 41 42 43 44 45 46 47 48 49 50
000
AXUS43 KLBF 240510
MISLBF


WESTERN AND NORTH CENTRAL NEBRASKA HOURLY WEATHER ROUNDUP
NATIONAL WEATHER SERVICE NORTH PLATTE NE
1100 PM CST MON JAN 23 2017

NOTE: "FAIR" INDICATES FEW OR NO CLOUDS BELOW 12,000 FEET WITH NO
SIGNIFICANT WEATHER AND/OR OBSTRUCTIONS TO VISIBILITY.

NOTE: STATIONS NOT REPORTING VARIABLES SUCH AS SKY/WEATHER OR
PRESSURE ARE PROVIDED BY RAWS AND APRS NETWORKS AND ARE NOT UNDER
NATIONAL WEATHER SERVICE QUALITY CONTROL.

...OBSERVATIONS IN AND NEAR THE EASTERN PANHANDLE OF NEBRASKA...

CITY           SKY/WX    TMP DP  RH WIND       PRES   REMARKS
PINE RIDGE     CLOUDY    26  26 100 NE9       29.67R FOG     WCI  17
CHADRON        FOG       24  23  96 NE12      29.68S VSB 3/4 WCI  13
ALLIANCE       CLOUDY    27  26  96 NE13      29.59F FOG     WCI  16
SIDNEY         CLOUDY    36  31  82 NE10      29.55F WCI  28
CRESCENT LAKE    N/A     29  26  86 N7          N/A  WCI  22
$$

...OBSERVATIONS IN NORTHERN NEBRASKA AND FAR SOUTHERN SOUTH DAKOTA...

CITY           SKY/WX    TMP DP  RH WIND       PRES   REMARKS
WINNER         CLOUDY    33  29  85 E6        29.72S WCI  28
VALENTINE      FOG       30  28  92 SE10      29.67S VSB 3/4 WCI  21
THEDFORD       FOG       32  32  99 E7        29.66S VSB 1/2 WCI  26
AINSWORTH      FOG       32  32 100 SE12      29.68S VSB 3/4 WCI  23
O`NEILL        CLOUDY    32  32  99 SE9       29.73S FOG     WCI  24
ORD            CLOUDY    32  29  88 E9        29.71S FOG     WCI  24
BROKEN BOW     FOG       32  31  96 E13       29.67S VSB 1/4 WCI  22
VALENTINE NWR    N/A     30  30  99 SE9         N/A  WCI  22
BUTTE            N/A     30  29  94 E14         N/A  WCI  19
HALSEY           N/A     30  30 100 SE7G14      N/A  WCI  23
CHAMBERS         N/A     31  30  95 SE3G12      N/A
EWING            N/A     31  30  94 SE3         N/A
$$

...OBSERVATIONS IN SOUTHWEST NEBRASKA AND FAR NORTHEAST COLORADO...

CITY           SKY/WX    TMP DP  RH WIND       PRES   REMARKS
WRAY           FAIR      32  28  86 NE6       29.54S WCI  26
HOLYOKE        FAIR      36  30  80 NE10      29.54F WCI  28
IMPERIAL       CLEAR     32  27  81 NE5       29.55F WCI  27
OGALLALA       CLOUDY    38  31  76 E5        29.57F WCI  34
NORTH PLATTE   PTCLDY    30  28  92 E7        29.62S WCI  23
MCCOOK         CLEAR     34  30  85 E9        29.56F WCI  27
LEXINGTON      CLOUDY    32  32  97 E9        29.64F FOG     WCI  25
STAPLETON        N/A     30  29  95 CALM        N/A
GOTHENBURG       N/A     31  31  98 E8          N/A  WCI  24
CALLAWAY         N/A     31  30  95 E10         N/A  WCI  22
$$

...OBSERVATIONS IN CENTRAL LINCOLN COUNTY AREA...

CITY           SKY/WX    TMP DP  RH WIND       PRES   REMARKS
N.P. AIRPORT   PTCLDY    30  28  92 E7        29.62S WCI  23
N.P. DOWNTOWN    N/A     32  30  92 E6G13       N/A  WCI  26
N.P. SOUTHEAST   N/A     32  29  90 E5          N/A  WCI  27
N.P. HILLCREST   N/A     32  30  92 E13         N/A  WCI  22
$$

...SOME OBSERVATIONS FROM AROUND THE REGION...

CITY           SKY/WX    TMP DP  RH WIND       PRES   REMARKS
LARAMIE        CLOUDY    21  16  81 S15       29.50F WCI   8
CHEYENNE       LGT SNOW  31  30  96 SE9       29.55S FOG     WCI  23
DENVER         CLOUDY    32  26  78 N14       29.52R WCI  22
AKRON          CLOUDY    31  25  78 E10       29.52S WCI  22
SCOTTSBLUFF    CLOUDY    30  26  85 NE18G25   29.55F WCI  18
RAPID CITY     CLOUDY    23  21  92 N16       29.71F FOG     WCI  10
BISMARCK       CLOUDY    30  25  81 CALM      29.83S
PIERRE         CLOUDY    29  26  89 E7        29.76S WCI  22
SIOUX FALLS    CLOUDY    32  30  92 SE8       29.81F WCI  25
OMAHA          CLOUDY    32  27  81 SE9       29.85R WCI  24
GRAND ISLAND   CLOUDY    32  32 100 E13       29.72F FOG     WCI  22
KANSAS CITY    CLEAR     33  29  85 E9        29.83S FOG     WCI  25
WICHITA        CLEAR     43  33  68 SE17G24   29.66F
OKLAHOMA CITY  CLEAR     47  32  56 S13       29.68F
DALLAS         PTCLDY    54  40  59 SE7       29.76S
AMARILLO       CLEAR     47  32  56 SW15      29.66F
DODGE CITY     CLEAR     40  34  79 S9        29.54F WCI  34
HAYS           CLOUDY    37  32  82 E6        29.58F WCI  32
GOODLAND       CLEAR     33  28  81 S13       29.47F WCI  24
$$




USA.gov is the U.S. government's official web portal to all federal, state and local government web resources and services.